This demonstration page uses our WeatherBlox Daily Observations layout. Learn more.

Left ArrowRight Arrow

Hourly Observations for February 18, 2019

Temp ( °F °C ) Dew Point ( °F °C ) Humidity (%) Winds ( mph kmh ) Pressure ( in mb ) Visibility ( mi km ) Precip ( " mm )
12:15 am 00:15 Cloudy 34 1 34 1 100 100 SW 5 7 29.9 1013 10 16.0934 0 0
12:35 am 00:35 Cloudy 34 1 34 1 100 100 S 13 20 29.85 1011 10 16.0934 0 0
12:55 am 00:55 Cloudy 34 1 34 1 100 100 S 5 7 29.85 1011 7 11.26538 0.01 0.254
1:15 am 01:15 Cloudy 34 1 34 1 100 100 S 13 20 29.84 1010 7 11.26538 0.01 0.254
1:35 am 01:35 Cloudy 34 1 34 1 100 100 S 8 13 29.83 1010 10 16.0934 0.02 0.508
1:55 am 01:55 Cloudy 36 2 36 2 100 100 S 8 13 29.82 1010 7 11.26538 0.04 1.016
2:15 am 02:15 Cloudy 36 2 36 2 100 100 S 7 11 29.82 1010 5 8.0467 0.02 0.508
2:35 am 02:35 Cloudy 36 2 36 2 100 100 SSW 5 7 29.81 1009 7 11.26538 0.03 0.762
2:55 am 02:55 Cloudy 36 2 36 2 100 100 S 6 9 29.79 1009 7 11.26538 0.05 1.27
3:15 am 03:15 Cloudy 36 2 36 2 100 100 Calm 29.8 1009 7 11.26538 0.01 0.254
3:35 am 03:35 Cloudy 36 2 36 2 100 100 NNW 5 7 29.82 1010 10 16.0934 0.02 0.508
3:55 am 03:55 Cloudy 36 2 36 2 100 100 Calm 29.82 1010 10 16.0934 0.02 0.508
4:15 am 04:15 Cloudy 36 2 36 2 100 100 S 3 6 29.82 1010 10 16.0934 0 0
4:35 am 04:35 Cloudy 36 2 36 2 100 100 Calm 29.8 1009 10 16.0934 0 0
4:55 am 04:55 Partly Cloudy 34 1 34 1 100 100 Calm 29.81 1009 10 16.0934 0 0
5:15 am 05:15 Clear 34 1 34 1 100 100 Calm 29.82 1010 10 16.0934 0 0
5:35 am 05:35 Clear 34 1 34 1 100 100 NNW 3 6 29.83 1010 10 16.0934 0 0
5:55 am 05:55 Clear 34 1 34 1 100 100 Calm 29.84 1010 10 16.0934 0 0
6:15 am 06:15 Clear 34 1 34 1 100 100 Calm 29.85 1011 10 16.0934 0 0
6:35 am 06:35 Clear 34 1 34 1 100 100 Calm 29.85 1011 10 16.0934 0 0
6:55 am 06:55 Clear 34 1 34 1 100 100 Calm 29.86 1011 10 16.0934 0 0
7:15 am 07:15 Sunny 34 1 34 1 100 100 S 5 7 29.86 1011 7 11.26538 0 0
7:35 am 07:35 Sunny 34 1 34 1 100 100 Calm 29.87 1012 7 11.26538 0 0
7:55 am 07:55 Sunny 37 3 37 3 100 100 NNW 12 19 29.89 1012 10 16.0934 0 0
8:15 am 08:15 Sunny 37 3 37 3 100 100 NW 16 26 29.91 1013 10 16.0934 0 0
8:35 am 08:35 Sunny 39 4 37 3 93 93 NW 14 22 29.92 1013 10 16.0934 0 0
8:55 am 08:55 Sunny 41 5 37 3 87 87 NW 13 20 29.92 1013 10 16.0934 0 0
9:15 am 09:15 Sunny 41 5 37 3 87 87 WNW 14 22 29.94 1014 10 16.0934 0 0
9:35 am 09:35 Partly Cloudy 41 5 36 2 81 81 NW 14 22 29.94 1014 10 16.0934 0 0
9:55 am 09:55 Mostly Cloudy 43 6 36 2 76 76 NW 15 24 29.95 1014 10 16.0934 0 0
10:15 am 10:15 Cloudy 45 7 36 2 71 71 WNW 17 28 29.96 1015 10 16.0934 0 0
10:35 am 10:35 Cloudy 45 7 34 1 66 66 NNW 16 26 29.99 1016 10 16.0934 0 0
10:55 am 10:55 Cloudy 43 6 34 1 71 71 NW 9 15 29.99 1016 10 16.0934 0 0
11:15 am 11:15 Partly Cloudy 45 7 34 1 66 66 NNW 28 44 29.99 1016 10 16.0934 0 0
11:35 am 11:35 Sunny 46 8 36 2 66 66 NW 26 43 30.02 1017 10 16.0934 0 0
11:55 am 11:55 Partly Cloudy 45 7 32 0 61 61 NNW 17 28 30.03 1017 10 16.0934 0 0
12:15 pm 12:15 Partly Cloudy 45 7 32 0 61 61 NW 17 28 30.04 1017 10 16.0934 0 0
12:35 pm 12:35 Sunny 45 7 32 0 61 61 WNW 21 33 30.05 1018 10 16.0934 0 0
12:55 pm 12:55 Mostly Cloudy 45 7 32 0 61 61 NW 17 28 30.05 1018 10 16.0934 0 0
1:15 pm 13:15 Cloudy 43 6 32 0 66 66 NW 25 41 30.06 1018 10 16.0934 0 0
1:35 pm 13:35 Cloudy 43 6 30 -1 61 61 WNW 21 33 30.07 1018 10 16.0934 0 0
1:50 pm 13:50 Cloudy 43 6 30 -1 61 61 WNW 20 31 30.07 1018 10 16.0934 0 0

Powered by AerisWeather